Terminal Aerodrome Forecast
Issued by NWS Denver/Boulder, CO

Home | Current Version | Previous Version | Text Only | Print | Product List | Glossary On
Versions: 1 2 3 4 5 6 7 8 9 10 11 12 13 14 15 16 17 18 19 20 21 22 23 24 25 26 27 28 29 30 31 32 33 34 35 36 37 38 39 40 41 42 43 44 45 46 47 48 49 50
000
FTUS45 KBOU 212002 AAC
TAFDEN
TAF AMD
KDEN 212002Z 2120/2224 27016G25KT P6SM SCT060 BKN100
     FM220100 31020G32KT P6SM BKN060 OVC120
     FM220600 34013G21KT P6SM VCSH BKN060 OVC090 PROB30 2208/2213
      2SM -SHSN BKN030 OVC060
     FM221400 31012G20KT P6SM VCSH SCT080 BKN120
     FM221800 34015G23KT P6SM SCT060 BKN090=

USA.gov is the U.S. government's official web portal to all federal, state and local government web resources and services.